sat.trackr.live / text

‹ back to catalog

STARLINK-4626

NORAD 53685 · 2022-105AP

PAYLOAD ACTIVE UNKNOWN

§ Identity

Operator
Country
US
Launch date
2022-08-31
Launch site
AFWTR
Launch vehicle
Mass (kg)
RCS (m²)

Purposes: comms

External: N2YO · Heavens-Above · Gunter

§ Orbital elements

Epoch: 2026-05-25T05:16:32.505888Z

Period
95.64 min
Inclination
97.4520°
Eccentricity
0.0002714
Mean motion
15.05639153 rev/d
Perigee alt
547.7 km
Apogee alt
551.4 km
Semi-major
6,927.7 km
B*
3.0695e-5
RAAN
25.1067°
Arg perigee
73.8222°
Mean anomaly
286.3304°
Rev number
20,474

§ Raw data

STARLINK-46261 53685U 22105AP  26145.21982067  .00000384  00000+0  30695-4 0  99912 53685  97.4520  25.1067 0002714  73.8222 286.3304 15.05639153204746

JSON: /api/v1/satellites/53685 · /tle

For live sub-satellite position, see the globe view (requires WebGL).

§ Visibility from observer

Set your observer location to see the next 7 days of passes ≥ 10°. The values pass through the URL so the page stays shareable.

No JS? Fill the form by hand. The geolocation button needs JavaScript.